KSLV-II R/B

Last updated on Thu Dec 25 2025 00:02:07 GMT+0000 (Coordinated Universal Time)

1 66663U 25274P 25357.24959984 .00013749 00000+0 11394-2 0 9992 2 66663 97.7435 284.4956 0060000 282.7951 76.6570 14.97536982 3987
UTC large
Height (km)
Speed (km/s)
/
Latitude / Longitude
Inclination (degrees)
Orbital Period (minutes)
Azimuth
Elevation
Range (km)
Doppler Factor

Next 0 passes for location: London (51.5072 / 0.1276)

Sorry there are no passes over London.